Location: Unspecified
(0.0000°N, 0.0000°E)
Time: 07:37:12
(UTC+00:00)

Vanguard 2 Rocket - Pass Details

Date: 16 October 2022
Orbit: 555 x 3321 km, 32.9° (Epoch: 06 December)

Event Time Altitude Azimuth Distance (km) Brightness Sun altitude
Rises 11:29:42 0° 195° (SSW) 3,905 10.3 80.2°
Reaches altitude 10° 11:34:27 10° 166° (SSE) 3,493 10.2 80.6°
Maximum altitude 11:38:01 13° 142° (SE) 3,693 10.3 80.8°
Drops below altitude 10° 11:42:17 10° 120° (ESE) 4,362 10.6 81.0°
Sets 11:50:15 0° 96° (E) 6,134 11.1 80.9°
